DateTimeUTC,F1_A11,F1_S11,BsB_S11,BsG_S11,BsR_S11,BbsB_S11,BbsG_S11,BbsR_S11,BaB_A11,BaG_A11,BaR_A11,Tu_S11,T_S11,Uu_S11,U_S11,P_S11,T1_A11
2021-12-24T14:00:00Z,00000200,21000000,,,,,,,0000.12,0000.18,0000.15,19.3,26.6,,00.0,0661.8,31.1
2021-12-24T14:01:00Z,00000200,21000000,,,,,,,-000.07,0000.43,0000.07,19.3,26.6,,00.0,0661.8,31.1
2021-12-24T14:02:00Z,00000200,21000000,,,,,,,0000.16,0000.04,0000.18,19.3,26.6,,00.0,0661.8,31.1
2021-12-24T14:03:00Z,00000200,61000000,,,,,,,0005.46,0004.54,0003.52,19.3,26.6,,00.0,0661.8,31.1
2021-12-24T14:04:00Z,00000200,41000000,0000.55,-000.12,0000.08,0000.87,0000.27,0000.47,0001.22,0001.34,0001.38,19.6,26.5,,00.0,0662.6,31.1
2021-12-24T14:05:00Z,00000200,01000000,-000.03,-000.05,0000.12,0000.49,0000.17,0000.04,0000.51,0000.35,0000.16,19.7,26.5,,00.0,0662.6,31.2
2021-12-24T14:06:00Z,00000200,01000000,0000.86,0000.12,0000.24,-000.29,0000.22,0000.38,0000.35,0000.56,0000.10,19.8,26.5,,00.0,0662.6,31.1
2021-12-24T14:07:00Z,00000200,01000000,-000.44,0000.31,0000.17,0000.28,0000.24,0000.33,0000.63,-000.11,0000.25,19.8,26.5,,00.0,0662.6,31.2
2021-12-24T14:08:00Z,00000200,01000000,0000.24,0000.30,0000.03,-000.16,0000.17,0000.71,0000.04,0000.80,0000.16,19.8,26.5,,00.0,0662.6,31.2
2021-12-24T14:09:00Z,00000200,01000000,0000.21,-000.16,0000.05,0000.12,-000.14,0000.01,0000.07,-000.12,-000.15,19.8,26.5,,00.0,0662.6,31.2
2021-12-24T14:10:00Z,00000200,01000000,0000.47,-000.22,0000.58,-000.64,0000.31,0000.17,0000.46,0000.21,0000.41,19.7,26.4,,00.0,0662.6,31.1
2021-12-24T14:11:00Z,00000200,01000000,0000.50,0000.23,0000.08,-000.24,0000.12,-000.12,-000.00,0000.27,0000.13,19.7,26.4,,00.0,0662.6,31.1
2021-12-24T14:12:00Z,00000200,01000000,0000.04,-000.15,0000.10,0000.41,0000.14,-000.17,0000.38,-000.03,-000.03,19.6,26.4,,00.0,0662.6,31.1
2021-12-24T14:13:00Z,00000200,01000000,-000.50,-000.31,0000.22,-000.25,0000.47,0000.04,0000.20,0000.33,0000.45,19.6,26.4,,00.0,0662.6,31.1
2021-12-24T14:14:00Z,00000200,01000000,0000.79,-000.27,0000.19,0000.15,-000.03,-000.04,-000.02,-000.16,0000.01,19.7,26.3,,00.0,0662.6,31.1
2021-12-24T14:15:00Z,00000200,01000000,0000.35,-000.01,0000.15,0000.08,0000.20,0000.07,0000.03,-000.12,0000.12,19.7,26.3,,00.0,0662.6,31.2
2021-12-24T14:16:00Z,00000200,01000000,-000.52,-000.23,-000.05,-000.03,0000.28,-000.02,-000.14,0000.16,-000.10,19.7,26.3,,00.0,0662.6,31.1
2021-12-24T14:17:00Z,00000200,01000000,-000.46,-000.24,0000.08,0000.61,-000.01,0000.08,0000.25,0000.31,-000.23,19.7,26.3,,00.0,0662.6,31.1
2021-12-24T14:18:00Z,00000200,01000000,0000.96,0000.06,0000.33,0000.66,0000.05,0000.29,0000.22,0000.26,0000.14,19.8,26.4,,00.0,0662.6,31.1
2021-12-24T14:19:00Z,00000200,01000000,0000.60,-000.19,0000.09,0000.06,0000.35,0000.06,-000.02,0000.06,0000.18,19.8,26.4,,00.0,0662.6,31.1
2021-12-24T14:20:00Z,00000200,01000000,0000.79,-000.13,0000.19,0000.31,0000.23,0000.11,-000.03,-000.09,0000.13,19.8,26.4,,00.0,0662.6,31.2
2021-12-24T14:21:00Z,00000200,01000000,0000.14,-000.09,-000.02,-000.35,0000.25,0000.51,0000.22,0000.00,-000.22,19.8,26.4,,00.0,0662.7,31.1
2021-12-24T14:22:00Z,00000200,01000000,0000.86,0000.23,0000.40,-000.38,0000.25,0000.66,-000.04,-000.09,0000.23,19.8,26.4,,00.0,0662.6,31.2
2021-12-24T14:23:00Z,00000200,01000000,-000.13,0000.10,-000.03,-000.21,0000.36,0000.24,-000.02,0000.01,0000.11,19.8,26.4,,00.0,0662.6,31.1
2021-12-24T14:24:00Z,00000200,01000000,-000.23,0000.10,0000.38,-000.41,0000.26,0000.28,-000.07,-000.12,-000.22,19.9,26.5,,00.0,0662.6,31.1
2021-12-24T14:25:00Z,00000200,01000000,0001.31,-000.03,0000.08,0000.76,0000.29,0000.06,0000.08,0000.37,0000.26,19.9,26.5,,00.0,0662.6,31.1
2021-12-24T14:26:00Z,00000200,01000000,0000.79,-000.08,0000.09,-000.30,0000.25,0000.13,0000.33,0000.28,0000.21,19.9,26.5,,00.0,0662.6,31.2
2021-12-24T14:27:00Z,00000200,01000000,0000.66,0000.40,0000.04,0000.12,0000.25,0000.07,0000.50,0000.13,-000.13,20.0,26.5,,00.0,0662.6,31.2
2021-12-24T14:28:00Z,00000200,01000000,0000.24,0000.08,0000.20,0000.07,0000.50,-000.00,-000.18,-000.10,0000.24,20.0,26.5,,00.0,0662.6,31.2
2021-12-24T14:29:00Z,00000200,01000000,-000.06,0000.09,0000.19,0000.21,0000.55,-000.02,0000.25,0000.22,0000.03,20.0,26.5,,00.0,0662.7,31.2
2021-12-24T14:30:00Z,00000200,01000000,-000.21,-000.01,0000.06,0000.11,0000.23,0000.26,-000.20,0000.33,0000.08,20.1,26.5,,00.0,0662.7,31.2
2021-12-24T14:31:00Z,00000200,01000000,0000.06,-000.06,0000.12,0000.23,-000.10,0000.10,-000.05,-000.26,0000.03,20.1,26.5,,00.0,0662.7,31.2
2021-12-24T14:32:00Z,00000200,01000000,0000.79,0000.09,0000.11,0000.07,0000.05,0000.50,0000.21,-000.11,-000.34,20.1,26.6,,00.0,0662.7,31.2
2021-12-24T14:33:00Z,00000200,01000000,0000.35,-000.08,0000.03,-000.12,0000.39,0000.15,0000.02,0000.26,0000.40,20.1,26.6,,00.0,0662.8,31.2
2021-12-24T14:34:00Z,00000200,01000000,-000.28,0000.40,0000.25,0000.19,0000.60,0000.28,0000.01,-000.04,-000.06,20.1,26.6,,00.0,0662.8,31.2
2021-12-24T14:35:00Z,00000200,01000000,0001.00,-000.20,0000.24,-000.20,0000.28,0000.26,0000.03,-000.08,0000.17,20.1,26.6,,00.0,0662.7,31.2
2021-12-24T14:36:00Z,00000200,01000000,0001.00,0000.03,-000.12,0000.84,0000.01,0000.05,0000.57,0000.26,-000.02,20.1,26.6,,00.0,0662.7,31.2
2021-12-24T14:37:00Z,00000200,01000000,-000.28,-000.23,0000.18,-000.41,0000.16,-000.05,-000.10,0000.32,0000.26,20.1,26.6,,00.0,0662.7,31.2
2021-12-24T14:38:00Z,00000200,01000000,0000.30,-000.06,0000.29,0000.09,0000.33,0000.19,0000.13,-000.13,0000.05,20.1,26.6,,00.0,0662.6,31.2
2021-12-24T14:39:00Z,00000200,01000000,0000.55,0000.31,0000.29,0000.59,0000.39,0000.12,0000.52,0000.29,0000.41,20.2,26.6,,00.0,0662.7,31.2
2021-12-24T14:40:00Z,00000200,01000000,0000.63,0000.18,0000.21,-000.44,0000.04,0000.15,0000.24,0000.38,0000.10,20.2,26.6,,00.0,0662.7,31.2
2021-12-24T14:41:00Z,00000200,01000000,-000.19,-000.31,0000.25,-000.19,0000.19,-000.06,0000.13,0000.21,-000.05,20.2,26.7,,00.0,0662.8,31.2
2021-12-24T14:42:00Z,00000200,01000000,0000.84,0000.46,-000.07,-000.20,0000.20,0000.30,-000.12,0000.11,0000.19,20.2,26.7,,00.0,0662.8,31.2
2021-12-24T14:43:00Z,00000200,01000000,-000.08,-000.00,0000.17,0000.49,-000.17,0000.29,0000.26,0000.04,0000.09,20.2,26.7,,00.0,0662.8,31.2
2021-12-24T14:44:00Z,00000200,01000000,0000.77,0000.11,0000.00,0000.53,0000.12,0000.01,-000.17,0000.08,-000.15,20.3,26.7,,00.0,0662.8,31.2
2021-12-24T14:45:00Z,00000200,01000000,0000.73,-000.08,0000.02,-000.37,0000.07,0000.30,-000.05,0000.01,0000.37,20.3,26.7,,00.0,0662.9,31.2
2021-12-24T14:46:00Z,00000200,01000000,0001.00,-000.20,0000.07,-000.07,0000.17,0000.13,-000.14,-000.15,-000.37,20.3,26.7,,00.0,0662.8,31.2
2021-12-24T14:47:00Z,00000200,01000000,0000.27,-000.34,-000.03,-000.04,0000.04,0000.08,0000.23,-000.04,0000.05,20.3,26.8,,00.0,0662.9,31.2
2021-12-24T14:48:00Z,00000200,01000000,0000.41,-000.09,0000.27,0000.09,0000.37,0000.75,-000.29,0000.10,-000.23,20.3,26.8,,00.0,0662.9,31.2
2021-12-24T14:49:00Z,00000200,01000000,0001.29,-000.11,0000.08,0000.48,-000.17,0000.17,0000.16,-000.22,0000.24,20.4,26.8,,00.0,0663.0,31.2
2021-12-24T14:50:00Z,00000200,01000000,-000.14,0000.13,0000.31,-000.05,0000.31,0000.47,-000.11,-000.18,-000.15,20.4,26.8,,00.0,0662.9,31.2
2021-12-24T14:51:00Z,00000200,01000000,-000.52,0000.02,-000.07,0000.70,0000.36,0000.03,0000.28,0000.15,0000.24,20.4,26.8,,00.0,0662.9,31.2
2021-12-24T14:52:00Z,00000200,01000000,0000.82,-000.30,0000.21,0000.25,0000.17,-000.07,0000.07,0000.17,-000.13,20.4,26.8,,00.0,0662.9,31.2
2021-12-24T14:53:00Z,00000200,01000000,-000.55,0000.11,0000.14,-000.33,0000.28,0000.09,0000.05,0000.38,0000.19,20.4,26.8,,00.0,0662.9,31.2
2021-12-24T14:54:00Z,00000200,01000000,0000.59,-000.08,-000.14,-000.13,0000.21,0000.05,0000.17,-000.24,-000.06,20.4,26.8,,00.0,0663.0,31.2
2021-12-24T14:55:00Z,00000200,01000000,0000.51,-000.06,-000.09,-000.40,0000.10,0000.22,-000.24,-000.13,-000.14,20.4,26.9,,00.0,0663.0,31.2
2021-12-24T14:56:00Z,00000200,01000000,0000.40,-000.15,0000.14,0000.33,0000.33,-000.30,-000.10,-000.10,0000.34,20.4,26.9,,00.0,0663.0,31.2
2021-12-24T14:57:00Z,00000200,41000000,,,,,,,0000.46,0000.65,0000.17,20.5,26.9,,00.0,0663.0,31.2
2021-12-24T14:58:00Z,00000200,61000000,,,,,,,-000.19,-000.33,-000.46,20.1,27.0,,00.0,0662.1,31.2
2021-12-24T14:59:00Z,00000200,21000000,,,,,,,-000.32,-000.45,-000.07,20.1,27.1,,00.0,0662.1,31.2
